Date,TemperatureHighF,TemperatureAvgF,TemperatureLowF,DewpointHighF,DewpointAvgF,DewpointLowF,HumidityHigh,HumidityAvg,HumidityLow,PressureMaxIn,PressureMinIn,WindSpeedMaxMPH,WindSpeedAvgMPH,GustSpeedMaxMPH,PrecipitationSumIn
2013-4-28,72,60,52,57,52,49,94,78,50,30.03,29.89,5,1,11,0.05
2013-4-29,87,65,44,67,56,43,98,76,42,29.96,29.76,2,0,8,0.00
2013-4-30,85,71,56,62,55,47,97,63,28,29.88,29.81,4,1,12,0.00
2013-5-1,84,66,52,69,60,50,96,82,55,30.06,29.88,3,0,10,0.01
2013-5-2,62,55,42,61,54,41,98,96,91,30.17,30.02,7,2,14,0.30
2013-5-3,42,38,37,41,37,35,96,95,91,30.16,29.96,6,3,20,0.30
2013-5-4,52,43,36,44,39,35,97,89,70,30.00,29.90,4,0,8,0.11
2013-5-5,57,48,36,51,43,35,98,84,69,30.05,29.96,6,2,17,0.01
2013-5-6,71,60,54,56,53,50,90,77,59,30.03,29.93,6,3,15,0.00
2013-5-7,81,65,52,60,55,50,95,73,38,30.05,29.95,3,0,9,0.00
2013-5-8,84,66,50,64,56,49,98,73,41,30.05,29.92,2,0,8,0.00
2013-5-9,87,69,57,63,58,52,96,73,31,29.97,29.85,3,1,12,0.17
2013-5-10,75,64,59,67,58,-100,98,84,60,30.02,29.85,6,1,15,0.20
2013-5-11,76,61,50,56,49,-100,97,69,31,30.18,30.02,7,1,15,0.03
2013-5-12,72,55,39,45,40,34,96,62,28,30.29,30.13,4,0,14,0.00
2013-5-13,83,63,45,56,50,44,96,67,32,30.24,30.03,3,0,8,0.00
2013-5-14,93,71,50,59,54,49,97,62,25,30.04,29.93,5,1,13,0.00
2013-5-15,84,70,54,69,61,52,96,76,56,30.00,29.88,3,0,9,0.04
2013-5-16,65,60,62,64,43,-100,98,95,89,29.92,29.85,2,0,7,0.32
2013-5-17,82,68,60,68,59,-100,99,84,54,29.93,29.84,2,0,5,0.04
2013-5-18,84,71,60,75,68,59,98,89,73,29.96,29.83,1,0,9,0.03
2013-5-19,89,76,64,74,68,63,99,79,48,29.84,29.70,4,1,11,0.00
2013-5-20,80,76,64,73,69,61,93,79,64,29.87,29.69,6,1,14,0.49
2013-5-21,69,64,60,67,62,59,98,94,87,29.91,29.64,3,1,15,1.05
2013-5-22,79,68,55,63,59,54,98,75,47,29.91,29.75,5,1,13,0.06
2013-5-23,78,66,53,65,59,52,98,79,55,30.16,29.92,5,1,12,0.00
2013-5-24,79,64,53,56,52,48,96,68,37,30.33,30.16,1,0,6,0.00
2013-5-25,84,66,49,67,57,48,96,74,50,30.28,30.08,2,0,5,0.00
2013-5-26,87,73,57,71,64,56,96,75,55,30.13,29.99,3,0,7,0.00
2013-5-27,84,75,63,69,65,61,94,74,54,30.01,29.83,4,1,11,0.00
2013-5-28,86,78,73,69,66,65,80,69,54,29.90,29.77,5,2,14,0.00
2013-5-29,85,78,70,69,67,64,83,70,55,29.92,29.77,4,1,10,0.00
2013-5-30,83,75,65,72,68,61,97,81,65,29.90,29.74,4,1,18,0.38
2013-5-31,86,76,66,75,71,64,96,85,69,29.87,29.67,5,1,10,0.35
2013-6-1,79,70,65,74,66,-100,98,89,77,29.93,29.70,5,1,12,0.98
2013-6-2,73,65,57,63,59,56,97,81,66,30.02,29.93,4,1,12,0.03
2013-6-3,80,68,57,63,59,55,96,76,49,30.06,29.91,1,0,4,0.00
2013-6-4,83,68,53,67,61,52,98,80,52,30.02,29.90,1,0,4,0.00
2013-6-5,85,70,58,72,64,57,98,83,59,29.96,29.80,5,0,15,0.00
2013-6-6,79,70,63,66,62,60,92,79,58,29.89,29.82,3,1,10,0.00
2013-6-7,80,67,57,61,58,54,96,75,43,29.94,29.86,4,1,10,0.00
2013-6-8,85,69,53,64,58,52,97,73,41,29.96,29.85,2,0,8,0.00
2013-6-9,81,68,58,74,64,57,97,88,62,29.91,29.80,5,0,14,0.15
2013-6-10,93,76,59,70,65,58,98,71,37,29.88,29.82,7,1,17,0.01
2013-6-11,97,81,64,74,68,63,98,70,34,29.97,29.88,3,0,8,0.00
2013-6-12,93,82,67,74,70,65,97,69,49,29.96,29.83,4,1,12,0.00
2013-6-13,92,80,69,74,70,66,95,72,48,29.96,29.86,4,1,11,0.00
2013-6-14,92,77,63,73,67,62,97,74,48,30.03,29.92,0,0,4,0.00
2013-6-15,91,76,63,74,68,62,97,78,48,30.01,29.90,2,0,7,0.00
2013-6-16,90,77,67,77,71,66,96,82,57,29.99,29.88,4,0,13,0.76
2013-6-17,79,71,65,74,68,64,99,92,76,29.95,29.83,2,0,11,0.97
2013-6-18,87,74,63,73,67,62,99,82,54,29.99,29.90,1,0,4,0.56
2013-6-19,93,76,61,73,66,60,99,77,41,30.03,29.94,0,0,3,0.01
2013-6-20,91,75,64,74,68,63,98,82,52,30.07,30.00,1,0,7,0.00
2013-6-22,82,80,76,74,73,71,85,79,76,29.98,29.96,0,0,3,0.00
2013-6-23,93,80,66,76,72,65,98,78,52,30.01,29.90,2,0,8,0.00
2013-6-24,94,82,71,75,73,69,96,74,50,30.04,29.92,2,0,7,0.00
2013-6-25,92,82,71,75,72,69,94,73,52,29.96,29.82,3,1,9,0.00
2013-6-26,97,86,76,79,74,70,85,70,52,29.87,29.77,3,1,9,0.00
2013-6-27,103,86,72,79,75,70,96,73,39,29.90,29.80,5,0,11,0.00
2013-6-28,94,85,75,78,70,62,91,64,39,29.85,29.73,6,1,15,0.00
2013-6-29,88,77,64,63,59,54,88,57,34,29.80,29.71,7,2,18,0.00
2013-6-30,82,73,66,64,61,59,81,67,49,29.90,29.75,5,1,14,0.00
2013-7-1,83,73,65,64,61,56,86,67,46,29.98,29.89,2,0,10,0.00
2013-7-2,84,70,58,61,57,55,92,67,38,30.06,29.96,4,0,13,0.00
2013-7-3,89,69,54,63,57,52,96,71,34,30.11,29.98,1,0,5,0.00
2013-7-4,92,73,56,65,59,54,96,67,32,30.06,29.94,2,0,7,0.00
2013-7-5,95,76,58,68,62,56,96,67,32,30.05,29.92,1,0,4,0.00
2013-7-6,96,75,61,70,64,59,96,75,32,30.02,29.92,1,0,5,0.00
2013-7-7,96,80,63,72,67,62,96,69,38,30.03,29.95,2,0,6,0.00
2013-7-8,97,79,67,76,70,65,96,77,44,30.08,29.98,1,0,4,0.05
2013-7-9,100,84,70,75,71,68,96,69,39,30.06,29.91,3,1,10,0.05
2013-7-10,103,82,72,74,68,-100,91,68,35,29.99,29.83,2,0,6,0.00
2013-7-11,101,83,69,75,67,58,95,65,30,29.97,29.88,2,0,6,0.00
2013-7-12,97,78,62,63,58,52,92,57,23,30.06,29.94,1,0,4,0.01
2013-7-13,94,73,56,67,59,53,93,66,32,30.06,29.93,1,0,4,0.01
2013-7-14,94,75,59,68,62,57,95,68,34,30.06,29.96,1,0,7,0.12
2013-7-15,95,79,66,74,69,63,94,73,46,30.15,30.05,2,0,7,0.00
2013-7-16,100,81,68,75,70,66,95,74,39,30.24,30.13,1,0,4,0.00
2013-7-17,100,83,68,74,69,66,95,67,36,30.29,30.13,1,0,7,0.00
2013-7-18,102,81,67,73,69,65,95,70,30,30.19,29.98,2,0,8,0.05
2013-7-19,101,78,69,72,70,67,96,78,37,30.03,29.87,2,0,13,0.09
2013-7-20,98,76,67,74,69,-100,99,84,41,29.93,29.80,3,0,9,0.46
2013-7-21,89,74,69,77,72,68,98,93,65,29.92,29.82,6,0,13,0.24
2013-7-22,85,76,69,76,72,67,99,89,65,29.91,29.80,4,0,12,0.32
2013-7-23,99,77,69,79,71,68,99,84,47,29.89,29.74,4,0,12,0.38
2013-7-24,87,76,69,75,71,68,98,85,61,29.98,29.81,6,0,14,0.40
2013-7-25,86,75,65,71,66,63,97,77,50,30.08,29.97,1,0,5,0.02
2013-7-26,72,68,64,70,67,63,98,95,90,30.06,29.97,0,0,1,0.72
2013-7-27,86,73,66,70,66,62,99,80,47,30.01,29.91,6,1,10,0.02
2013-7-28,79,69,62,69,65,61,97,88,67,30.05,29.97,0,0,1,0.01
2013-7-29,87,75,66,75,69,65,97,84,63,30.10,30.00,2,0,7,0.01
2013-7-30,85,76,71,78,74,70,98,92,73,30.04,29.94,1,0,4,0.68
2013-7-31,76,75,75,75,74,74,98,98,97,29.99,29.98,0,0,1,0.00
2013-8-2,82,79,77,76,75,74,92,87,80,29.89,29.88,0,0,0,0.00
2013-8-3,87,77,68,77,73,67,98,88,70,30.07,29.85,12,0,24,1.64
2013-8-4,79,73,69,74,72,68,98,95,84,30.11,30.02,2,0,7,0.76
2013-8-5,85,76,69,81,74,67,99,95,81,30.04,29.80,10,0,19,0.78
2013-8-6,88,77,68,82,74,67,99,93,80,29.95,29.79,4,0,9,0.56
2013-8-7,91,79,74,80,75,71,98,88,65,29.98,29.78,1,0,13,0.11
2013-8-8,87,76,71,79,74,70,99,94,76,29.96,29.84,4,0,13,0.85
2013-8-9,87,77,71,79,74,70,99,92,68,30.00,29.90,1,0,5,0.54
2013-8-10,80,74,70,75,72,69,99,95,83,30.09,29.98,3,0,9,1.80
2013-8-11,85,76,70,79,74,69,99,94,77,30.09,29.99,1,0,3,0.19
2013-8-12,88,76,70,79,73,70,99,93,72,30.02,29.92,6,0,13,0.08
2013-8-13,82,74,69,76,69,-100,99,89,73,30.02,29.93,0,0,3,0.05
2013-8-14,81,70,60,68,60,-100,96,77,44,30.14,30.02,1,0,5,0.00
2013-8-15,79,59,53,64,44,-100,98,78,53,30.14,30.02,1,0,5,0.00
2013-8-16,79,64,55,65,56,-100,98,82,56,30.11,30.05,0,0,4,0.00
2013-8-17,85,69,60,69,62,-100,96,81,59,30.12,30.02,0,0,0,0.00
2013-8-18,87,72,60,70,65,59,98,83,50,30.13,30.03,0,0,1,0.00
2013-8-19,89,69,62,71,55,-100,98,82,49,30.12,29.98,0,0,1,0.00
2013-8-20,90,73,62,72,65,-100,98,81,48,30.09,30.00,0,0,0,0.00
2013-8-21,94,75,62,76,68,61,99,82,46,30.11,30.01,2,0,5,0.00
2013-8-22,93,78,65,77,71,64,98,81,49,30.10,29.98,1,0,4,0.00
2013-8-23,94,79,67,78,72,66,99,83,55,30.07,29.97,1,0,3,0.00
2013-8-24,95,78,68,77,70,-100,98,80,48,30.14,30.03,1,0,4,0.00
2013-8-25,95,78,65,78,72,64,98,82,52,30.21,30.10,0,0,1,0.00
2013-8-26,95,80,68,77,72,67,99,80,47,30.19,30.07,0,0,1,0.00
2013-8-27,95,74,65,73,68,64,98,85,42,30.10,30.03,0,0,0,0.00
2013-8-28,96,88,74,78,74,70,95,65,47,30.05,29.97,0,0,0,0.00
2013-8-29,99,81,67,77,72,66,99,79,43,30.05,29.94,0,0,1,0.00
2013-8-30,97,81,69,79,74,68,98,82,48,29.98,29.84,5,0,14,0.00
2013-8-31,101,82,70,78,71,-100,98,76,41,29.88,29.75,1,0,6,0.00
2013-9-1,85,77,70,77,73,69,98,89,69,29.86,29.76,2,0,7,0.04
2013-9-2,90,77,67,72,69,65,98,80,46,29.94,29.84,3,0,9,0.01
2013-9-3,90,73,59,69,63,58,98,75,37,30.04,29.94,2,0,5,0.00
2013-9-4,92,72,56,68,61,55,98,75,31,30.14,30.03,1,0,4,0.00
2013-9-5,91,71,56,68,63,55,98,79,40,30.19,30.08,0,0,4,0.00
2013-9-6,92,73,58,70,64,57,98,78,38,30.15,30.00,1,0,5,0.00
2013-9-7,96,75,60,73,65,-100,98,77,40,30.04,29.91,1,0,5,0.00
2013-9-8,98,79,64,76,70,63,97,78,44,29.95,29.85,2,0,8,0.00
2013-9-9,99,81,68,74,71,67,98,75,36,29.98,29.89,2,0,6,0.00
2013-9-10,99,78,64,73,68,63,98,76,33,30.10,29.96,2,0,7,0.00
2013-9-11,98,78,67,74,70,66,97,79,41,30.12,30.01,1,0,7,0.00
2013-9-12,93,77,67,74,70,64,97,81,44,30.06,29.94,4,0,12,0.00
2013-9-13,80,70,60,71,61,57,93,73,49,30.08,29.97,2,0,7,0.00
2013-9-14,84,64,50,57,52,-100,98,72,36,30.12,29.99,1,0,5,0.00
2013-9-15,91,66,48,66,57,47,98,77,39,30.08,30.00,0,0,4,0.00
2013-9-16,78,69,61,68,64,60,96,84,70,30.18,30.04,0,0,0,0.00
2013-9-17,91,75,65,70,66,62,93,76,43,30.16,30.00,0,0,0,0.00